Find Starlink 31769

NORAD ID: 59617 Int'l Des: 2024-080 Owner: SPXS Country: US Constellation: starlink operational
LEOCIRCULAR

現在のビュー

3D地球を読み込み中...

Starlink 31769について

説明を読み込み中...

次回通過

Passes for default location (London). Set your location on the main map for personalized predictions.

高度履歴

Loading altitude history...

軌道要素

1 59617U 24080S 26149.80075383 .00000864 00000-0 40897-4 0 9998
2 59617 43.0002 300.1685 0000651 248.3171 111.7612 15.27580391116930
Epoch: May 29, 2026 • Age: 19 hours

現在のステータス

高度 486.6 km
速度 7.63 km/s
衛星直下点 43.00°N, 73.29°W
打ち上げ日 Apr 28, 2024
運用期間 2 years
タイプ internet

技術仕様

分類 Payload
質量 730.00 kg
乾燥質量 700.00 kg
総質量 730.00 kg
長さ 0.30 m
直径 4.10 m
スパン 29.00 m
形状 Box + pan
製造者 SPXS
バスタイプ Starlink V2M
フェーズステータス In Orbit
所有者/国 SPXS/US

Most Searched